(209939) = 2006 DX34

Discovered at Kitt Peak on 2006-02-20 by Spacewatch.

Orbit

Orbit type: Main Belt

Note: WebGL enabled browser required.

epoch2024-03-31.0
epoch JD2460400.5
perihelion date2021-07-25.48583
perihelion JD2459420.98583
argument of perihelion (°)145.99452
ascending node (°)160.76988
inclination (°)3.00302
eccentricity0.1815101
perihelion distance (AU)1.9136345
Tisserand w.r.t. Jupiter3.5
ΔV w.r.t. Earth (km/sec)8.6
semimajor axis (AU)2.3380063
mean anomaly (°)270.05116
mean daily motion (°/day)0.27569910
aphelion distance (AU)2.762
period (years)3.57
P-vector [x]0.59877882
P-vector [y]-0.74598741
P-vector [z]-0.29149048
Q-vector [x]0.80072854
Q-vector [y]0.56542576
Q-vector [z]0.19780677
absolute magnitude17.22
phase slope0.15
uncertainty0
referenceMPEC 2024-F50
observations used446
oppositions15
arc length (days)7033
first opposition used2004
last opposition used2024
residual rms (arc-secs)0.77
perturbers coarse indicatorM-v
perturbers precise indicator003Ek
first observation date used2004-12-16.0
last observation date used2024-03-19.0
computer nameMPCLINUX
JD of orbit computation2456966.838615
perihelion JD uncertainty (days)5.5904E-05
argument of perihelion uncertainty (°)6.4437E-05
ascending node uncertainty (°)6.1820E-05
inclination uncertainty (°)5.9671E-06
eccentricity uncertainty 4.1037E-08
perihelion distance uncertainty (AU)9.7840E-08
Minimum Orbit Intersection Distances (in AU)
for orbit epoch: 2460400.5, reference: E2024-G95
Mercury1.47977
Venus1.18872
Earth0.89948
Mars0.51927
Jupiter2.47452
Saturn6.33455
Uranus15.7454
Neptune27.3447

Observations

457 total observations over interval: 2004 12 16.28446 – 2024 03 19.513275
These data are available for download (format description).

Date (UT) J2000 RA J2000 Dec Magn Location Ref
2004 12 16.28446 06 06 13.35 +18 53 33.5 21.0 V 691 – Steward Observatory, Kitt Peak-Spacewatch MPS 216255
2004 12 16.31132 06 06 11.53 +18 53 34.4 20.8 V 691 – Steward Observatory, Kitt Peak-Spacewatch MPS 216255
2004 12 16.33755 06 06 09.73 +18 53 34.8 21.0 V 691 – Steward Observatory, Kitt Peak-Spacewatch MPS 216255
2006 02 20.45195 12 38 29.74 -02 51 43.8   691 – Steward Observatory, Kitt Peak-Spacewatch MPS 165237
2006 02 20.46931 12 38 29.33 -02 51 39.7   691 – Steward Observatory, Kitt Peak-Spacewatch MPS 165237
2006 02 20.48666 12 38 28.92 -02 51 35.6   691 – Steward Observatory, Kitt Peak-Spacewatch MPS 165237
2006 02 24.40003 12 36 48.72 -02 34 55.7 21.1 V 691 – Steward Observatory, Kitt Peak-Spacewatch MPS 165237
2006 02 24.41736 12 36 48.23 -02 34 50.9 21.3 V 691 – Steward Observatory, Kitt Peak-Spacewatch MPS 165237
2006 02 24.43463 12 36 47.73 -02 34 45.8 21.3 V 691 – Steward Observatory, Kitt Peak-Spacewatch MPS 165237
2006 03 02.36287 12 33 31.19 -02 04 35.1 20.8 V 691 – Steward Observatory, Kitt Peak-Spacewatch MPS 181143
2006 03 02.38011 12 33 30.51 -02 04 29.2 20.8 V 691 – Steward Observatory, Kitt Peak-Spacewatch MPS 181143
2006 03 02.39735 12 33 29.85 -02 04 23.4 21.0 V 691 – Steward Observatory, Kitt Peak-Spacewatch MPS 181143
2006 03 24.19432 12 15 43.52 +00 22 30.5 21.3 V 691 – Steward Observatory, Kitt Peak-Spacewatch MPS 181143
2006 03 24.21167 12 15 42.52 +00 22 38.2 20.9 V 691 – Steward Observatory, Kitt Peak-Spacewatch MPS 181143
2006 03 24.22905 12 15 41.55 +00 22 45.9 21.0 V 691 – Steward Observatory, Kitt Peak-Spacewatch MPS 181143
2006 03 24.29498 12 15 37.65 +00 23 14.3 20.3 V G96 – Mt. Lemmon Survey MPS 181143
2006 03 24.30222 12 15 37.26 +00 23 17.6 20.3 V G96 – Mt. Lemmon Survey MPS 181143
2006 03 24.30943 12 15 36.82 +00 23 20.8 20.1 V G96 – Mt. Lemmon Survey MPS 181143
2006 03 24.31664 12 15 36.43 +00 23 24.0 20.2 V G96 – Mt. Lemmon Survey MPS 181143
2006 04 07.24276 12 02 48.37 +02 02 22.3 20.3 V G96 – Mt. Lemmon Survey MPS 181143
2006 04 07.24928 12 02 47.97 +02 02 24.1 20.9 V G96 – Mt. Lemmon Survey MPS 181143
2006 04 07.25580 12 02 47.65 +02 02 26.9 20.5 V G96 – Mt. Lemmon Survey MPS 181143
2006 04 07.26250 12 02 47.32 +02 02 29.5 20.3 V G96 – Mt. Lemmon Survey MPS 181143
2007 09 11.32131 01 26 54.56 +06 36 45.9 19.2 V 703 – Catalina Sky Survey MPS 216255
2007 09 11.32833 01 26 54.24 +06 36 44.6 19.9 V 703 – Catalina Sky Survey MPS 216255
2007 09 11.33541 01 26 54.13 +06 36 41.7 20.2 V 703 – Catalina Sky Survey MPS 216255
2007 09 11.34244 01 26 53.98 +06 36 39.4 19.6 V 703 – Catalina Sky Survey MPS 216255
2007 09 12.40215 01 26 24.39 +06 31 01.9 19.7 V G96 – Mt. Lemmon Survey MPS 216255
2007 09 12.41582 01 26 23.96 +06 30 57.9 19.9 V G96 – Mt. Lemmon Survey MPS 216255
2007 09 12.42274 01 26 23.74 +06 30 55.6 19.9 V G96 – Mt. Lemmon Survey MPS 216255
2007 09 13.28829 01 25 58.41 +06 26 10.7 19.8   704 – Lincoln Laboratory ETS, New Mexico MPS 216255
2007 09 13.29986 01 25 58.08 +06 26 07.0 19.8   704 – Lincoln Laboratory ETS, New Mexico MPS 216255
2007 09 13.32298 01 25 57.35 +06 26 00.1 19.9   704 – Lincoln Laboratory ETS, New Mexico MPS 216255
2007 09 13.33462 01 25 56.89 +06 25 56.1 19.9   704 – Lincoln Laboratory ETS, New Mexico MPS 216255
2007 09 19.23704 01 22 28.41 +05 50 28.1 19.7   704 – Lincoln Laboratory ETS, New Mexico MPS 216255
2007 09 19.24900 01 22 27.78 +05 50 23.9 20.1   704 – Lincoln Laboratory ETS, New Mexico MPS 216255
2007 09 19.26099 01 22 27.19 +05 50 19.9 20.2   704 – Lincoln Laboratory ETS, New Mexico MPS 216255
2007 09 19.28491 01 22 26.36 +05 50 09.2 20.0   704 – Lincoln Laboratory ETS, New Mexico MPS 216255
2007 09 20.45474 01 21 37.90 +05 42 32.7 19.8 V 691 – Steward Observatory, Kitt Peak-Spacewatch MPS 216255
2007 09 20.47233 01 21 37.10 +05 42 25.7 19.9 V 691 – Steward Observatory, Kitt Peak-Spacewatch MPS 216255
2007 09 20.48992 01 21 36.35 +05 42 18.7 20.0 V 691 – Steward Observatory, Kitt Peak-Spacewatch MPS 216255
2007 09 21.28611 01 21 03.19 +05 37 03.8 19.9   704 – Lincoln Laboratory ETS, New Mexico MPS 217764
2007 09 21.31042 01 21 01.97 +05 36 53.2 20.3   704 – Lincoln Laboratory ETS, New Mexico MPS 217764
2007 09 21.32262 01 21 01.44 +05 36 47.6 20.0   704 – Lincoln Laboratory ETS, New Mexico MPS 217764
2007 09 21.33486 01 21 00.87 +05 36 44.5 20.2   704 – Lincoln Laboratory ETS, New Mexico MPS 217764
2007 09 21.62995 01 20 48.33 +05 34 43.5 19.5 R D29 – Purple Mountain Observatory, XuYi Station MPS 217764
2007 09 21.64120 01 20 47.79 +05 34 39.5 19.8 R D29 – Purple Mountain Observatory, XuYi Station MPS 217764
2007 09 21.65340 01 20 47.24 +05 34 34.1 19.7 R D29 – Purple Mountain Observatory, XuYi Station MPS 217764
2007 09 21.66434 01 20 46.76 +05 34 30.0 19.6 R D29 – Purple Mountain Observatory, XuYi Station MPS 217764
2007 10 04.32273 01 10 13.87 +04 03 39.1 19.2 V 703 – Catalina Sky Survey MPS 218102
2007 10 04.33035 01 10 13.44 +04 03 35.5 19.4 V 703 – Catalina Sky Survey MPS 218102
2007 10 04.33796 01 10 12.93 +04 03 32.4 19.0 V 703 – Catalina Sky Survey MPS 218102
2007 10 04.34556 01 10 12.54 +04 03 28.8 18.8 V 703 – Catalina Sky Survey MPS 218102
2007 10 06.25284 01 08 28.31 +03 49 23.6 19.5   704 – Lincoln Laboratory ETS, New Mexico MPS 218695
2007 10 06.26367 01 08 27.69 +03 49 18.2 19.9   704 – Lincoln Laboratory ETS, New Mexico MPS 218695
2007 10 06.27488 01 08 27.04 +03 49 13.6 19.4   704 – Lincoln Laboratory ETS, New Mexico MPS 218695
2007 10 06.28567 01 08 26.40 +03 49 07.8 19.6   704 – Lincoln Laboratory ETS, New Mexico MPS 218695
2007 10 06.29648 01 08 25.79 +03 49 04.4 19.6   704 – Lincoln Laboratory ETS, New Mexico MPS 218695
2007 10 07.30308 01 07 30.25 +03 41 41.2 19.5 r 699 – Lowell Observatory-LONEOS MPS 255236
2007 10 07.32866 01 07 28.75 +03 41 28.0   699 – Lowell Observatory-LONEOS MPS 255236
2007 10 07.35425 01 07 27.34 +03 41 18.5   699 – Lowell Observatory-LONEOS MPS 255236
2007 10 07.37982 01 07 25.87 +03 41 06.2   699 – Lowell Observatory-LONEOS MPS 255236
2007 10 09.30032 01 05 39.98 +03 27 07.4 19.1 V G96 – Mt. Lemmon Survey MPS 218695
2007 10 09.30661 01 05 39.62 +03 27 04.8 19.2 V G96 – Mt. Lemmon Survey MPS 218695
2007 10 09.31294 01 05 39.26 +03 27 02.1 19.3 V G96 – Mt. Lemmon Survey MPS 218695
2007 10 09.31918 01 05 38.90 +03 26 59.2 19.3 V G96 – Mt. Lemmon Survey MPS 218695
2007 10 13.24706 01 02 03.84 +02 59 10.1 19.1 V 703 – Catalina Sky Survey MPS 220569
2007 10 13.24939 01 02 03.73 +02 59 08.7 19.1 V G96 – Mt. Lemmon Survey MPS 220569
2007 10 13.25416 01 02 03.48 +02 59 06.5 19.0 V 703 – Catalina Sky Survey MPS 220569
2007 10 13.25520 01 02 03.40 +02 59 06.5 19.2 V G96 – Mt. Lemmon Survey MPS 220569
2007 10 13.26101 01 02 03.08 +02 59 04.0 19.2 V G96 – Mt. Lemmon Survey MPS 220569
2007 10 13.26125 01 02 03.04 +02 59 03.8 19.0 V 703 – Catalina Sky Survey MPS 220569
2007 10 13.26681 01 02 02.76 +02 59 01.6 19.4 V G96 – Mt. Lemmon Survey MPS 220569
2007 10 13.26839 01 02 02.65 +02 59 01.1 19.4 V 703 – Catalina Sky Survey MPS 220569
2007 10 14.20492 01 01 12.25 +02 52 35.5 19.3   704 – Lincoln Laboratory ETS, New Mexico MPS 220569
2007 10 14.22722 01 01 11.03 +02 52 26.7 19.6   704 – Lincoln Laboratory ETS, New Mexico MPS 220569
2007 10 14.23827 01 01 10.38 +02 52 22.4 19.7   704 – Lincoln Laboratory ETS, New Mexico MPS 220569
2007 10 19.25349 00 56 49.67 +02 19 47.3 19.7   704 – Lincoln Laboratory ETS, New Mexico MPS 222546
2007 10 19.26413 00 56 49.04 +02 19 43.8 19.8   704 – Lincoln Laboratory ETS, New Mexico MPS 222546
2007 10 19.27478 00 56 48.53 +02 19 39.9 19.9   704 – Lincoln Laboratory ETS, New Mexico MPS 222546
2007 10 19.28545 00 56 48.04 +02 19 36.4 19.9   704 – Lincoln Laboratory ETS, New Mexico MPS 222546
2007 11 01.07591 00 47 46.33 +01 15 39.8   691 – Steward Observatory, Kitt Peak-Spacewatch MPS 223473
2007 11 01.10027 00 47 45.48 +01 15 34.0   691 – Steward Observatory, Kitt Peak-Spacewatch MPS 223473
2007 11 01.12462 00 47 44.62 +01 15 28.7   691 – Steward Observatory, Kitt Peak-Spacewatch MPS 223473
2007 11 02.18601 00 47 09.99 +01 11 38.2 19.3 V G96 – Mt. Lemmon Survey MPS 224913
2007 11 02.19436 00 47 09.70 +01 11 36.3 19.3 V G96 – Mt. Lemmon Survey MPS 224913
